DW8463 Weather Reports


time (UTC)temp
C
wind
direction
speed
KPH
gust
KPH
rain 1hr
cm
rain 24hr
cm
rain mn
cm
humidity
%
barometer
mb
20240222103303 -3 346 0.0 0.0 0.00 0.00 0.00 92 1009.6
20240222102803 -3 346 0.0 0.0 0.00 0.00 0.00 92 1009.6
20240222102305 -3 346 0.0 1.6 0.00 0.00 0.00 92 1009.6
20240222101304 -3 345 0.0 0.0 0.00 0.00 0.00 92 1009.6
20240222100803 -3 345 0.0 0.0 0.00 0.00 0.00 92 1009.6
20240222100303 -3 344 0.0 0.0 0.00 0.00 0.00 92 1009.7
20240222095804 -3 341 0.0 0.0 0.00 0.00 0.00 86 1009.7
20240222094804 -3 340 0.0 0.0 0.00 0.00 0.00 86 1009.8
20240222094304 -3 340 0.0 0.0 0.00 0.00 0.00 86 1009.8
20240222093804 -3 340 0.0 0.0 0.00 0.00 0.00 86 1009.8
20240222093304 -3 340 0.0 0.0 0.00 0.00 0.00 86 1010.0
20240222092803 -3 340 0.0 0.0 0.00 0.00 0.00 86 1010.1
20240222092306 -3 339 0.0 0.0 0.00 0.00 0.00 86 1010.0
20240222091804 -3 339 0.0 0.0 0.00 0.00 0.00 86 1010.1
20240222091304 -3 339 0.0 0.0 0.00 0.00 0.00 86 1010.1
20240222090804 -3 338 0.0 0.0 0.00 0.00 0.00 86 1010.2
20240222090304 -3 338 0.0 0.0 0.00 0.00 0.00 86 1010.1
20240222085804 -3 336 0.0 0.0 0.00 0.00 0.00 86 1010.2
20240222084804 -3 336 0.0 0.0 0.00 0.00 0.00 86 1010.3
20240222083804 -3 336 0.0 0.0 0.00 0.00 0.00 86 1010.3
20240222083304 -3 335 0.0 0.0 0.00 0.00 0.00 86 1010.4
20240222082305 -3 332 0.0 0.0 0.00 0.00 0.00 86 1010.3
20240222081804 -3 331 0.0 0.0 0.00 0.00 0.00 86 1010.3
20240222081304 -3 334 0.0 0.0 0.00 0.00 0.00 86 1010.3
20240222080804 -3 336 0.0 0.0 0.00 0.00 0.00 86 1010.4
20240222080304 -3 334 0.0 1.6 0.00 0.00 0.00 86 1010.4
20240222075804 -3 334 0.0 1.6 0.00 0.00 0.00 86 1010.4
20240222075306 -3 332 0.0 0.0 0.00 0.00 0.00 86 1010.3
20240222074804 -2 333 0.0 0.0 0.00 0.00 0.00 86 1010.3
20240222074304 -3 330 0.0 0.0 0.00 0.00 0.00 86 1010.4
20240222073804 -2 330 0.0 0.0 0.00 0.00 0.00 86 1010.4
20240222073304 -2 334 0.0 0.0 0.00 0.00 0.00 86 1010.4
20240222072804 -2 344 0.0 0.0 0.00 0.00 0.00 86 1010.4
20240222072305 -2 344 0.0 0.0 0.00 0.00 0.00 86 1010.4
20240222071804 -2 344 0.0 0.0 0.00 0.00 0.00 86 1010.5
20240222071304 -2 345 0.0 0.0 0.00 0.00 0.00 86 1010.4
20240222070804 -2 346 0.0 0.0 0.00 0.00 0.00 86 1010.4
20240222070304 -2 346 0.0 0.0 0.00 0.00 0.00 86 1010.6
20240222065803 -2 346 0.0 0.0 0.00 0.00 0.00 86 1010.7
20240222065305 -2 346 0.0 0.0 0.00 0.00 0.00 86 1010.8
20240222064804 -2 346 0.0 0.0 0.00 0.00 0.00 86 1010.9
20240222064304 -2 346 0.0 0.0 0.00 0.00 0.00 86 1010.9
20240222063305 -2 346 0.0 0.0 0.00 0.00 0.00 86 1010.9
20240222062804 -2 346 0.0 0.0 0.00 0.00 0.00 86 1010.9
20240222062305 -2 346 0.0 0.0 0.00 0.00 0.00 86 1010.9
20240222061804 -2 346 0.0 0.0 0.00 0.00 0.00 86 1011.1
20240222061304 -2 346 0.0 0.0 0.00 0.00 0.00 86 1011.0
20240222060828 -2 346 0.0 0.0 0.00 0.00 0.00 86 1011.1
20240222060304 -2 346 0.0 0.0 0.00 0.00 0.00 84 1011.2
20240222055804 -2 346 0.0 0.0 0.00 0.00 0.00 74 1011.2
20240222055306 -2 346 0.0 0.0 0.00 0.00 0.00 74 1011.2
20240222054804 -2 346 0.0 1.6 0.00 0.00 0.00 74 1011.1
20240222054304 -2 345 0.0 1.6 0.00 0.00 0.00 74 1011.1
20240222053304 -2 344 0.0 0.0 0.00 0.00 0.00 74 1011.1
20240222052803 -2 344 0.0 0.0 0.00 0.00 0.00 74 1011.2
20240222052306 -2 344 0.0 0.0 0.00 0.00 0.00 74 1011.1
20240222051804 -2 344 0.0 0.0 0.00 0.00 0.00 74 1011.1
20240222051304 -2 343 0.0 0.0 0.00 0.00 0.00 74 1011.2
20240222050804 -2 340 0.0 0.0 0.00 0.00 0.00 74 1011.2
20240222050304 -2 335 0.0 0.0 0.00 0.00 0.00 72 1011.2
20240222045804 -2 325 0.0 0.0 0.00 0.00 0.00 64 1011.2
20240222045306 -2 328 0.0 0.0 0.00 0.00 0.00 64 1011.2
20240222044804 -1 326 0.0 0.0 0.00 0.00 0.00 64 1011.2
20240222044304 -1 333 0.0 0.0 0.00 0.00 0.00 64 1011.3
20240222043804 -1 334 0.0 0.0 0.00 0.00 0.00 64 1011.4
20240222043304 -1 330 0.0 1.6 0.00 0.00 0.00 64 1011.3
20240222042804 -1 332 0.0 0.0 0.00 0.00 0.00 64 1011.3
20240222042306 -1 342 0.0 0.0 0.00 0.00 0.00 64 1011.3
20240222041804 -1 345 0.0 0.0 0.00 0.00 0.00 64 1011.4
20240222041304 -1 344 0.0 0.0 0.00 0.00 0.00 64 1011.4
20240222040804 -1 341 0.0 0.0 0.00 0.00 0.00 64 1011.4
20240222040304 -1 338 0.0 0.0 0.00 0.00 0.00 64 1011.4
20240222035804 -1 337 0.0 0.0 0.00 0.00 0.00 59 1011.4
20240222035306 -1 300 0.0 0.0 0.00 0.00 0.00 59 1011.5
20240222034305 -1 299 1.6 3.2 0.00 0.00 0.00 59 1011.4
20240222032804 -1 300 0.0 1.6 0.00 0.00 0.00 59 1011.3
20240222032306 -1 299 0.0 0.0 0.00 0.00 0.00 59 1011.2
20240222031804 0 298 0.0 0.0 0.00 0.00 0.00 59 1011.2
20240222031304 0 299 0.0 0.0 0.00 0.00 0.00 59 1011.1
20240222030804 0 300 0.0 0.0 0.00 0.00 0.00 59 1011.1
20240222030304 0 300 0.0 0.0 0.00 0.00 0.00 59 1011.1
20240222025804 -1 300 0.0 0.0 0.00 0.00 0.00 59 1011.2
20240222025305 0 300 0.0 0.0 0.00 0.00 0.00 59 1011.1
20240222024804 0 299 0.0 1.6 0.00 0.00 0.00 59 1011.2
20240222024304 0 298 1.6 1.6 0.00 0.00 0.00 59 1011.2
20240222023804 0 298 0.0 0.0 0.00 0.00 0.00 59 1011.2
20240222023304 0 299 0.0 0.0 0.00 0.00 0.00 59 1011.2
20240222022305 0 298 0.0 1.6 0.00 0.00 0.00 59 1011.2
20240222021804 0 299 0.0 1.6 0.00 0.00 0.00 59 1011.3
20240222021303 0 298 0.0 0.0 0.00 0.00 0.00 59 1011.3
20240222020804 0 299 0.0 0.0 0.00 0.00 0.00 59 1011.3
20240222020304 0 299 0.0 0.0 0.00 0.00 0.00 59 1011.3
20240222015803 0 344 0.0 0.0 0.00 0.00 0.00 52 1011.2
20240222015306 0 346 0.0 0.0 0.00 0.00 0.00 52 1011.3
20240222014804 0 346 0.0 0.0 0.00 0.00 0.00 52 1011.3
20240222014304 0 347 0.0 1.6 0.00 0.00 0.00 52 1011.3
20240222013804 0 347 0.0 0.0 0.00 0.00 0.00 52 1011.4
20240222012804 1 347 0.0 0.0 0.00 0.00 0.00 52 1011.4
20240222012306 1 347 0.0 0.0 0.00 0.00 0.00 52 1011.4
20240222011804 1 347 0.0 0.0 0.00 0.00 0.00 52 1011.3
20240222011304 1 347 0.0 0.0 0.00 0.00 0.00 52 1011.4
20240222010804 1 347 0.0 0.0 0.00 0.00 0.00 52 1011.4
20240222010304 1 347 0.0 0.0 0.00 0.00 0.00 52 1011.3
20240222005804 1 347 0.0 0.0 0.00 0.00 0.00 45 1011.3
20240222004804 1 348 0.0 0.0 0.00 0.00 0.00 45 1011.3
20240222004304 1 348 0.0 0.0 0.00 0.00 0.00 45 1011.2
20240222003804 2 348 0.0 0.0 0.00 0.00 0.00 45 1011.2
20240222002804 2 348 0.0 0.0 0.00 0.00 0.00 45 1011.2
20240222002306 2 347 0.0 1.6 0.00 0.00 0.00 45 1011.3
20240222001804 2 347 0.0 0.0 0.00 0.00 0.00 45 1011.3
20240222001304 3 347 0.0 0.0 0.00 0.00 0.00 45 1011.3
20240222000804 3 345 0.0 0.0 0.00 0.00 0.00 45 1011.2
20240222000304 3 340 0.0 0.0 0.00 0.00 0.00 45 1011.2
20240221235306 4 298 0.0 0.0 0.00 0.00 0.00 36 1011.1
20240221234804 5 306 0.0 0.0 0.00 0.00 0.00 36 1011.0
20240221234304 5 323 0.0 0.0 0.00 0.00 0.00 36 1010.9
20240221233304 6 294 0.0 1.6 0.00 0.00 0.00 36 1010.8
20240221232804 6 290 1.6 1.6 0.00 0.00 0.00 36 1010.8
20240221232306 6 289 1.6 3.2 0.00 0.00 0.00 36 1010.7
20240221231304 6 288 1.6 3.2 0.00 0.00 0.00 36 1010.7
20240221230804 7 289 1.6 3.2 0.00 0.00 0.00 36 1010.6
20240221230304 7 289 1.6 3.2 0.00 0.00 0.00 36 1010.7
20240221225804 7 352 1.6 4.8 0.00 0.00 0.00 31 1010.7
20240221225306 8 351 1.6 4.8 0.00 0.00 0.00 31 1010.6
20240221224804 8 351 1.6 4.8 0.00 0.00 0.00 31 1010.6
20240221224304 8 351 1.6 4.8 0.00 0.00 0.00 31 1010.5
20240221223803 8 345 4.8 8.0 0.00 0.00 0.00 31 1010.6
20240221223304 8 348 3.2 4.8 0.00 0.00 0.00 31 1010.7
20240221222804 8 294 0.0 1.6 0.00 0.00 0.00 31 1010.8
20240221222306 8 294 0.0 4.8 0.00 0.00 0.00 31 1010.9
20240221221804 8 291 3.2 4.8 0.00 0.00 0.00 31 1011.0
20240221220805 8 255 3.2 4.8 0.00 0.00 0.00 31 1011.0
20240221220304 9 275 3.2 8.0 0.00 0.00 0.00 31 1010.9
20240221215804 9 241 1.6 3.2 0.00 0.00 0.00 39 1010.9
20240221215306 9 236 1.6 4.8 0.00 0.00 0.00 39 1010.9
20240221214804 9 258 1.6 4.8 0.00 0.00 0.00 39 1011.1
20240221213803 9 301 6.4 12.9 0.00 0.00 0.00 39 1011.2
20240221213304 9 313 4.8 11.3 0.00 0.00 0.00 39 1011.1
20240221212804 9 302 1.6 4.8 0.00 0.00 0.00 39 1011.2
20240221212306 8 259 3.2 4.8 0.00 0.00 0.00 39 1011.2
20240221211804 8 293 3.2 4.8 0.00 0.00 0.00 39 1011.3
20240221210804 8 282 3.2 4.8 0.00 0.00 0.00 39 1011.3
20240221210304 8 237 1.6 9.7 0.00 0.00 0.00 39 1011.2
20240221205804 8 281 1.6 4.8 0.00 0.00 0.00 39 1011.3
20240221205305 9 215 3.2 4.8 0.00 0.00 0.00 39 1011.2
20240221204304 9 262 1.6 3.2 0.00 0.00 0.00 39 1011.2
20240221203804 9 272 1.6 3.2 0.00 0.00 0.00 39 1011.4
20240221203304 9 265 0.0 3.2 0.00 0.00 0.00 39 1011.3
20240221202803 8 265 3.2 8.0 0.00 0.00 0.00 39 1011.5
20240221202305 8 232 4.8 8.0 0.00 0.00 0.00 39 1011.8
20240221201804 8 215 4.8 11.3 0.00 0.00 0.00 39 1011.9
20240221201304 9 257 3.2 12.9 0.00 0.00 0.00 39 1011.9
20240221200804 9 284 4.8 11.3 0.00 0.00 0.00 39 1011.8
20240221195804 8 270 4.8 9.7 0.00 0.00 0.00 33 1011.9
20240221195306 9 235 1.6 3.2 0.00 0.00 0.00 33 1011.8
20240221194804 8 229 3.2 4.8 0.00 0.00 0.00 33 1011.7
20240221194304 8 212 4.8 8.0 0.00 0.00 0.00 33 1011.8
20240221193304 8 203 3.2 9.7 0.00 0.00 0.00 33 1011.9
20240221192804 8 290 3.2 9.7 0.00 0.00 0.00 33 1011.9
20240221192306 8 287 4.8 11.3 0.00 0.00 0.00 33 1012.0
20240221191804 8 325 3.2 4.8 0.00 0.00 0.00 33 1011.8
20240221191303 8 219 0.0 4.8 0.00 0.00 0.00 33 1011.9
20240221190303 8 237 3.2 4.8 0.00 0.00 0.00 35 1012.2
20240221185803 8 289 3.2 8.0 0.00 0.00 0.00 45 1012.4
20240221185305 8 189 4.8 8.0 0.00 0.00 0.00 45 1012.5
20240221184304 8 220 6.4 14.5 0.00 0.00 0.00 45 1012.5
20240221183804 8 189 3.2 8.0 0.00 0.00 0.00 45 1012.5
20240221183304 8 306 3.2 9.7 0.00 0.00 0.00 45 1012.7
20240221182804 7 240 3.2 8.0 0.00 0.00 0.00 45 1012.8
20240221182306 8 204 4.8 9.7 0.00 0.00 0.00 45 1012.9
20240221181804 8 187 0.0 8.0 0.00 0.00 0.00 45 1013.0
20240221181304 8 216 4.8 9.7 0.00 0.00 0.00 45 1013.1
20240221180804 7 219 6.4 9.7 0.00 0.00 0.00 45 1013.2
20240221180304 7 224 4.8 9.7 0.00 0.00 0.00 45 1013.3
20240221175306 7 199 4.8 11.3 0.00 0.00 0.00 48 1013.5
20240221174304 7 271 4.8 11.3 0.00 0.00 0.00 48 1013.5
20240221173804 7 220 1.6 4.8 0.00 0.00 0.00 48 1013.6
20240221173303 7 304 4.8 8.0 0.00 0.00 0.00 48 1013.6
20240221172804 7 257 3.2 8.0 0.00 0.00 0.00 48 1013.7
20240221172305 6 222 4.8 12.9 0.00 0.00 0.00 48 1013.8
20240221171804 6 339 3.2 4.8 0.00 0.00 0.00 48 1013.8
20240221170804 6 301 6.4 11.3 0.00 0.00 0.00 48 1013.8
20240221170304 6 247 1.6 4.8 0.00 0.00 0.00 52 1013.7
20240221165804 5 210 3.2 9.7 0.00 0.00 0.00 69 1013.7
20240221165306 5 251 3.2 4.8 0.00 0.00 0.00 69 1013.8
20240221164804 5 265 4.8 9.7 0.00 0.00 0.00 69 1013.7
20240221163804 5 295 1.6 4.8 0.00 0.00 0.00 69 1013.7
20240221163304 5 259 3.2 4.8 0.00 0.00 0.00 69 1013.7
20240221162804 5 214 3.2 4.8 0.00 0.00 0.00 69 1013.7
20240221162306 5 279 1.6 4.8 0.00 0.00 0.00 69 1013.8
20240221161804 4 221 1.6 4.8 0.00 0.00 0.00 69 1013.9
20240221160804 3 219 3.2 4.8 0.00 0.00 0.00 69 1014.0
20240221160304 3 222 3.2 4.8 0.00 0.00 0.00 72 1014.0
20240221155804 3 243 1.6 4.8 0.00 0.00 0.00 86 1014.1
20240221155306 2 201 3.2 4.8 0.00 0.00 0.00 86 1014.1
20240221154804 2 206 1.6 9.7 0.00 0.00 0.00 86 1014.0
20240221154303 2 185 3.2 4.8 0.00 0.00 0.00 86 1014.0
20240221153804 2 231 0.0 4.8 0.00 0.00 0.00 86 1013.7
20240221153304 1 215 1.6 4.8 0.00 0.00 0.00 86 1013.9
20240221152804 1 222 0.0 3.2 0.00 0.00 0.00 86 1013.8
20240221152306 1 234 0.0 3.2 0.00 0.00 0.00 86 1013.9
20240221151804 0 215 3.2 4.8 0.00 0.00 0.00 86 1013.9
20240221151304 0 232 3.2 4.8 0.00 0.00 0.00 86 1014.0
20240221150804 0 244 1.6 4.8 0.00 0.00 0.00 86 1013.9
20240221150304 0 194 1.6 4.8 0.00 0.00 0.00 86 1013.9
20240221145306 -1 289 0.0 1.6 0.00 0.00 0.00 92 1014.0
20240221144804 -1 288 0.0 3.2 0.00 0.00 0.00 92 1013.9
20240221144304 -1 288 0.0 1.6 0.00 0.00 0.00 92 1014.0
20240221143804 -1 286 0.0 3.2 0.00 0.00 0.00 92 1014.0
20240221143304 -2 286 0.0 0.0 0.00 0.00 0.00 92 1013.9
20240221142804 -2 288 0.0 1.6 0.00 0.00 0.00 92 1014.0
20240221141804 -3 291 0.0 0.0 0.00 0.00 0.00 92 1014.0
20240221141304 -3 346 0.0 0.0 0.00 0.00 0.00 92 1014.1
20240221140304 -4 307 0.0 0.0 0.00 0.00 0.00 92 1014.1
20240221135804 -5 296 0.0 0.0 0.00 0.00 0.00 92 1014.1
20240221132804 -5 348 0.0 0.0 0.00 0.00 0.00 92 1014.1
20240221132306 -6 348 0.0 0.0 0.00 0.00 0.00 92 1013.9
20240221131804 -6 348 0.0 0.0 0.00 0.00 0.00 92 1013.6
20240221131304 -6 348 0.0 0.0 0.00 0.00 0.00 92 1013.5
20240221130804 -6 348 0.0 0.0 0.00 0.00 0.00 92 1013.4
20240221130304 -6 348 0.0 0.0 0.00 0.00 0.00 92 1013.5
20240221125804 -6 348 0.0 0.0 0.00 0.00 0.00 100 1013.5
20240221125306 -6 348 0.0 0.0 0.00 0.00 0.00 100 1013.5
20240221124804 -6 351 0.0 0.0 0.00 0.00 0.00 100 1013.6
20240221124304 -5 348 0.0 0.0 0.00 0.00 0.00 100 1013.7
20240221123804 -5 348 0.0 1.6 0.00 0.00 0.00 100 1013.8
20240221123304 -5 348 0.0 0.0 0.00 0.00 0.00 100 1013.8
20240221122804 -5 348 0.0 0.0 0.00 0.00 0.00 100 1013.8
20240221121304 -5 348 0.0 0.0 0.00 0.00 0.00 100 1013.8
20240221120804 -5 348 0.0 0.0 0.00 0.00 0.00 100 1013.8
20240221120304 -5 349 0.0 0.0 0.00 0.00 0.00 100 1013.9
20240221115804 -5 348 0.0 0.0 0.00 0.00 0.00 92 1014.0
20240221115306 -5 348 0.0 0.0 0.00 0.00 0.00 92 1013.9
20240221114304 -5 317 0.0 0.0 0.00 0.00 0.00 92 1013.9
20240221113804 -5 299 0.0 0.0 0.00 0.00 0.00 92 1013.9
20240221113304 -5 298 0.0 0.0 0.00 0.00 0.00 92 1013.8
20240221112804 -5 298 0.0 0.0 0.00 0.00 0.00 92 1013.8
20240221112306 -5 298 0.0 0.0 0.00 0.00 0.00 92 1013.7
20240221111804 -5 299 0.0 0.0 0.00 0.00 0.00 92 1013.7
20240221111304 -5 300 0.0 0.0 0.00 0.00 0.00 92 1013.8
20240221110804 -5 300 0.0 0.0 0.00 0.00 0.00 92 1013.7
20240221110304 -5 301 0.0 3.2 0.00 0.00 0.00 92 1013.7
20240221105804 -5 300 0.0 1.6 0.00 0.00 0.00 100 1013.7
20240221105305 -5 300 0.0 1.6 0.00 0.00 0.00 100 1013.7
20240221104803 -5 300 0.0 0.0 0.00 0.00 0.00 100 1013.8